Location: Unnamed
(53.9021°N, 27.5568°E)
Time: 18:53:08
(UTC+03:00)

STARLINK-73 - Pass Details

Date: 19 January 2020
Orbit: 528 x 531 km, 53.0° (Epoch: 25 February)

Event Time Altitude Azimuth Distance (km) Brightness Sun altitude
Rises 06:42:53 0° 185° (S) 2,657 7.1 -21.8°
Reaches altitude 10° 06:46:44 10° 147° (SSE) 1,774 6.7 -21.3°
Maximum altitude 06:47:44 11° 133° (SE) 1,726 6.9 -21.1°
Drops below altitude 10° 06:48:44 10° 118° (ESE) 1,778 7.2 -21.0°
Sets 06:52:36 0° 81° (E) 2,675 8.5 -20.4°
